Location: Passau
(48.5830°N, 13.4830°E)
Time: 07:02:18
(UTC+02:00)

ISS - Visible Passes

Search period start: 06 May 2021 00:00
Search period end: 16 May 2021 00:00
Orbit: 418 x 421 km, 51.6° (Epoch: 05 May)

Date Brightness Start Highest point End Pass type
(mag) Time Alt. Az. Time Alt. Az. Time Alt. Az.
06 May -3.4 02:48:19 57° E 02:48:19 57° E 02:51:10 10° ENE visible
06 May -2.9 04:21:27 10° W 04:24:45 50° N 04:28:04 10° ENE visible
07 May -1.6 02:02:24 21° E 02:02:24 21° E 02:03:42 10° ENE visible
07 May -3.2 03:35:20 23° W 03:37:15 56° NNW 03:40:36 10° ENE visible
08 May -3.5 02:49:24 60° WNW 02:49:46 67° NNW 02:53:08 10° ENE visible
08 May -2.8 04:23:33 10° WNW 04:26:52 49° N 04:30:10 10° E visible
09 May -2.6 02:03:25 39° ENE 02:03:25 39° ENE 02:05:42 10° ENE visible
09 May -2.8 03:36:21 12° WNW 03:39:21 47° N 03:42:38 10° ENE visible
10 May -1.3 01:17:26 16° ENE 01:17:26 16° ENE 01:18:15 10° ENE visible
10 May -2.9 02:50:21 28° WNW 02:51:50 50° N 02:55:08 10° ENE visible
10 May -3.3 04:25:33 10° WNW 04:28:56 63° NNE 04:32:17 10° E visible
11 May -3.1 02:04:19 55° N 02:04:19 55° N 02:07:39 10° ENE visible
11 May -3.0 03:38:05 10° WNW 03:41:26 54° N 03:44:46 10° E visible
12 May -2.2 01:18:14 31° ENE 01:18:14 31° ENE 01:20:11 10° ENE visible
12 May -2.8 02:51:09 14° WNW 02:53:54 49° N 02:57:12 10° E visible
12 May -3.8 04:27:30 10° WNW 04:30:52 77° SSW 04:34:15 10° ESE visible
13 May -1.3 00:32:03 15° ENE 00:32:03 15° ENE 00:32:43 10° ENE visible
13 May -2.8 02:04:58 28° WNW 02:06:22 47° N 02:09:40 10° ENE visible
13 May -3.7 03:40:02 10° WNW 03:43:26 80° NNE 03:46:49 10° ESE visible
14 May -2.9 01:18:34 48° NNW 01:18:50 49° N 01:22:09 10° ENE visible
14 May -3.3 02:52:35 10° WNW 02:55:57 63° NNE 02:59:18 10° E visible
14 May -3.2 04:29:31 10° WNW 04:32:40 36° SSW 04:35:48 10° SE visible
14 May -3.7 22:51:14 10° SW 22:54:29 50° SSE 22:57:46 10° ENE visible
15 May -3.1 00:27:59 10° W 00:31:19 55° N 00:34:39 10° ENE visible
15 May -3.0 02:05:06 10° WNW 02:08:26 54° N 02:11:45 10° E visible
15 May -3.7 03:41:59 10° WNW 03:45:17 54° SSW 03:48:36 10° SE visible
15 May -3.1 22:04:03 10° SSW 22:07:07 34° SE 22:10:12 10° E visible
15 May -3.4 23:40:26 10° W 23:43:48 66° NNW 23:47:10 10° ENE visible
